Regional Weather Roundup
Issued by NWS

Home | Current Version | Previous Version | Text Only | Print | Product List | Glossary On
Versions: 1 2 3 4 5 6 7 8 9 10 11 12 13 14 15 16 17 18 19 20 21 22 23 24 25 26 27 28 29 30 31 32 33 34 35 36 37 38 39 40 41 42 43 44 45 46 47 48 49 50
000
ASMX46 KSGX 301303
RWRMX

MEXICAN WEATHER ROUNDUP
NATIONAL WEATHER SERVICE SAN DIEGO CA
600 AM PDT SAT AUG 30 2014

BAJA CALIFORNIA

CITY           SKY/WX    TMP DP  RH WIND       PRES   REMARKS
ENSENADA NW      N/A     67  32  26 NW6       29.80R
LORETO         PTCLDY    84  75  74 CALM      29.75
TIJUANA        CLOUDY    66  61  82 CALM      29.85S HAZE

NORTHWESTERN MEXICO

CITY           SKY/WX    TMP DP  RH WIND       PRES   REMARKS
CHIHUAHUA      MOCLDY    61  45  55 S7        30.13
JUAREZ         MOCLDY    72  59  64 CALM      30.02

NORTHEASTERN MEXICO

CITY           SKY/WX    TMP DP  RH WIND       PRES   REMARKS
MATAMOROS      DRIZZLE   73  73 100 SE5       29.88
MONCLOVA       CLEAR    N/A N/A N/A CALM      29.94S
MONTERREY      PTCLDY    75  70  83 CALM      29.91R
NUEVO LAREDO   CLEAR     79  73  83 E6        29.89
PIEDRAS NEGRAS CLEAR     77  70  78 CALM      29.94S
REYNOSA        MOCLDY    73  72  94 E10       29.86
SALTILLO       CLEAR     66  59  77 CALM      30.16R
TORREON        PTCLDY    73  59  60 CALM      30.04R
VICTORIA       PTCLDY    79  68  69 S7        29.87

WESTERN MEXICO

CITY           SKY/WX    TMP DP  RH WIND       PRES   REMARKS
AGUASCALIENTES PTCLDY    59  55  88 NE3       30.21
COLIMA         MOCLDY    68  66  94 CALM      29.94S
DURANGO        MOCLDY    57  52  82 NW3       30.20R
GUADALAJARA    PTCLDY    61  59  94 CALM      30.11  FOG
MANZANILLO     MOCLDY    79  73  83 CALM      29.76
MAZATLAN       MOCLDY    75  73  94 NW8       29.76S
PTO. VALLARTA  MOCLDY    75  72  88 N9        29.78F
TEPIC          PTCLDY    66  64  94 W3        30.03
URUAPAN        FOG       61  61 100 CALM      30.12R VSB 0
ZACATECAS      MOCLDY    57  48  72 CALM      30.24R

CENTRAL MEXICO

CITY           SKY/WX    TMP DP  RH WIND       PRES   REMARKS
CUERNAVACA     MOCLDY    64  64 100 CALM      30.08R
LEON           PTCLDY    57  54  88 CALM      30.22R
MEXICO CITY    PTCLDY    61  52  72 N3        30.26S
MORELIA        MOCLDY    54  52  94 CALM      30.17  FOG
POZA RICA      PTCLDY    77  75  94 N7        29.87S FOG
PUEBLA         MOCLDY    54  50  87 W5        30.29R
QUERETARO        N/A    N/A N/A N/A MISG        N/A
S. LUIS POTOSI MOCLDY    57  54  88 NW5       30.19R
TAMPICO        PTCLDY    81  75  83 CALM      29.85R
TOLUCA         FOG       48  46  93 CALM      30.32S VSB 1/8
VERACRUZ       PTSUNNY   73  72  94 CALM      29.83R

SOUTHERN MEXICO

CITY           SKY/WX    TMP DP  RH WIND       PRES   REMARKS
ACAPULCO       MOCLDY    77  73  88 N5        29.84R
B. DE HUATULCO LGT RAIN  73  70  88 E7        29.91
MINATITLAN     FOG       75  72  88 CALM      29.83  VSB 1
OAXACA         PTSUNNY   61  59  94 CALM      30.16R
PTO. ESCONDIDO MOCLDY    75  72  88 E5        29.99S
TAPACHULA      PTSUNNY   73  73 100 CALM      29.90R
TUX. GUTIERREZ PTSUNNY   72  70  94 NW2       29.95R FOG
VILLAHERMOSA   PTSUNNY   75  73  94 CALM      29.88R
ZIHUATANEJO    MOCLDY    77  72  83 CALM      29.83R

YUCATAN PENINSULA

CITY           SKY/WX    TMP DP  RH WIND       PRES   REMARKS
CAMPECHE       MOSUNNY   77  75  94 E7        29.89R
CANCUN         MOSUNNY   86  77  74 E13       29.95R HX  97
CHETUMAL       MOSUNNY   84  73  70 E6        29.89S
C. DEL CARMEN  MOSUNNY   82  75  78 SE21      29.87
COZUMEL        PTSUNNY   77  77 100 E6        29.94R
MERIDA         PTSUNNY   77  77 100 E8        29.93R

$$



USA.gov is the U.S. government's official web portal to all federal, state and local government web resources and services.